Weather History for K6R6 - April, 2013

Change the Weather History Date:

Saturday, April 13, 2013

  Actual Average Record
Temperature  
Mean Temperature 66 °F -  
Max Temperature 73 °F - - ()
Min Temperature 60 °F - - ()
Growing Degree Days 16 (Base 50)    
Moisture  
Dew Point 53 °F    
Average Humidity 65    
Maximum Humidity 78    
Minimum Humidity 33    
Precipitation  
Precipitation 0.00 in - - ()
Sea Level Pressure  
Sea Level Pressure 29.72 in    
Wind  
Wind Speed 14 mph (East)    
Max Wind Speed 21 mph    
Max Gust Speed 32 mph    
T = Trace of Precipitation, MM = Missing Value Source: NWS Daily Summary

Daily Weather History Graph

Daily Weather History Graph

Search for Another Location

Airport or City:

Trip Planner

Search our weather history database for the weather conditions in past years. The results will help you decide how hot, cold, wet, or windy it might be!

Date:

Astronomy

Apr. 13, 2013 Rise Set
Actual Time 7:23 AM CDT 8:15 PM CDT
Civil Twilight 6:59 AM CDT 8:39 PM CDT
Nautical Twilight 6:30 AM CDT 9:08 PM CDT
Astronomical Twilight 6:01 AM CDT 9:38 PM CDT
Moon 9:28 AM CDT (4/13) 11:28 PM CDT (4/13)
Length of Visible Light 13h 40m
Length of Day
12h 51m
Waxing Crescent, 10% of the Moon is Illuminated
Apr 13
Waxing Crescent
Apr 18
First Quarter
Apr 25
Full
May 2
Last Quarter
May 9
New

Hourly Weather History & Observations

Time (CDT) Temp. Dew Point Humidity Pressure Visibility Wind Dir Wind Speed Gust Speed Precip Events Conditions
12:53 AM 69.1 °F 39.0 °F 33% 29.74 in - East 12.7 mph - N/A   Unknown
1:53 AM 68.0 °F 45.0 °F 43% 29.73 in - ESE 20.7 mph 32.2 mph N/A   Unknown
2:53 AM 66.9 °F 48.9 °F 52% 29.73 in - ESE 20.7 mph 28.8 mph N/A   Unknown
3:53 AM 64.0 °F 48.9 °F 58% 29.73 in - East 16.1 mph 26.5 mph N/A   Unknown
4:53 AM 62.1 °F 51.1 °F 67% 29.72 in - East 15.0 mph 26.5 mph N/A   Unknown
5:53 AM 60.1 °F 53.1 °F 78% 29.72 in - East 16.1 mph 23.0 mph N/A   Unknown
6:53 AM 60.1 °F 53.1 °F 78% 29.74 in - ESE 10.4 mph - N/A   Unknown
7:53 AM 60.1 °F 53.1 °F 78% 29.75 in - East 12.7 mph - N/A   Unknown
8:53 AM 61.0 °F 54.0 °F 78% 29.75 in - East 10.4 mph - N/A   Unknown
9:53 AM 64.0 °F 54.0 °F 70% 29.76 in - ESE 11.5 mph - N/A   Unknown
10:53 AM 66.0 °F 54.0 °F 65% 29.75 in - East 15.0 mph 23.0 mph N/A   Unknown
11:53 AM 66.9 °F 55.0 °F 66% 29.74 in - ESE 13.8 mph 24.2 mph N/A   Unknown
12:53 PM 69.1 °F 55.0 °F 61% 29.74 in - East 13.8 mph 21.9 mph N/A   Unknown
1:53 PM 68.0 °F 55.9 °F 65% 29.72 in - East 13.8 mph - N/A   Unknown
2:53 PM 71.1 °F 55.9 °F 59% 29.70 in - East 12.7 mph 19.6 mph N/A   Unknown
3:53 PM 71.1 °F 55.9 °F 59% 29.68 in - East 15.0 mph 24.2 mph N/A   Unknown
4:53 PM 71.1 °F 55.9 °F 59% 29.68 in - East 13.8 mph - N/A   Unknown
5:53 PM 69.1 °F 57.0 °F 65% 29.68 in - East 13.8 mph - N/A   Unknown
6:53 PM 68.0 °F 55.9 °F 65% 29.69 in - East 12.7 mph - N/A   Unknown
7:53 PM 66.9 °F 55.9 °F 68% 29.70 in - East 8.1 mph - N/A   Unknown
8:53 PM 66.0 °F 55.9 °F 70% 29.70 in - ESE 4.6 mph - N/A   Unknown
9:53 PM 63.0 °F 55.0 °F 75% 29.69 in - NE 5.8 mph - N/A   Unknown
10:53 PM 61.0 °F 54.0 °F 78% 29.70 in - North 4.6 mph - N/A   Unknown
11:53 PM 60.1 °F 53.1 °F 78% 29.70 in - NNE 4.6 mph - N/A   Unknown